Location: Beekmeers
(50.8953°N, 3.6968°E)
Time: 10:06:56
(UTC+00:00)

Okean 1-7 - Pass Details

Date: 23 May 2024
Orbit: 579 x 604 km, 82.5° (Epoch: 14 June)

Event Time Altitude Azimuth Distance (km) Brightness Sun altitude
Exits shadow 01:30:18 25° 212° (SSW) 1,221 4.0 -14.6°
Maximum altitude 01:32:38 58° 283° (WNW) 704 3.2 -14.4°
Drops below altitude 10° 01:36:55 10° 4° (N) 1,960 6.7 -14.1°
Sets 01:39:11 0° 8° (N) 2,871 7.9 -14.0°
